FW9926 Weather Reports


Display with metric or nautical units.
time (UTC)temp
F
wind
direction
speed
MPH
gust
MPH
rain 1hr
in
rain 24hr
in
rain mn
in
humidity
%
barometer
mb
20260508211554 73 309 4.0 9.0 0.00 0.00 0.00 28 1022.9
20260508210113 74 19 2.0 9.0 0.00 0.00 0.00 25 1022.8
20260508204556 74 319 3.0 8.0 0.00 0.00 0.00 24 1022.8
20260508203048 73 14 5.0 10.0 0.00 0.00 0.00 27 1022.9
20260508201550 73 313 3.0 12.0 0.00 0.00 0.00 28 1023.1
20260508200050 73 329 4.0 11.0 0.00 0.00 0.00 39 1023.1
20260508194551 72 340 3.0 10.0 0.00 0.00 0.00 40 1023.3
20260508193052 72 349 5.0 11.0 0.00 0.00 0.00 38 1023.3
20260508191552 72 355 3.0 11.0 0.00 0.00 0.00 35 1023.4
20260508184618 71 350 4.0 9.0 0.00 0.00 0.00 36 1023.4
20260508183056 71 36 4.0 10.0 0.00 0.00 0.00 33 1023.5
20260508181605 71 5 3.0 8.0 0.00 0.00 0.00 33 1023.4
20260508180059 71 348 3.0 8.0 0.00 0.00 0.00 34 1023.5
20260508174553 71 325 2.0 9.0 0.00 0.00 0.00 34 1023.4
20260508173053 70 5 3.0 8.0 0.00 0.00 0.00 33 1023.3
20260508171553 69 333 3.0 10.0 0.00 0.00 0.00 32 1023.2
20260508170054 69 5 3.0 9.0 0.00 0.00 0.00 32 1023.2
20260508164559 68 331 4.0 10.0 0.00 0.00 0.00 31 1023.1
20260508163049 68 24 4.0 10.0 0.00 0.00 0.00 32 1023.2
20260508161552 67 360 3.0 12.0 0.00 0.00 0.00 31 1023.1
20260508160055 66 360 3.0 7.0 0.00 0.00 0.00 34 1023.0
20260508154552 66 332 4.0 10.0 0.00 0.00 0.00 33 1023.0
20260508153053 65 333 3.0 5.0 0.00 0.00 0.00 36 1023.0
20260508151603 64 13 3.0 7.0 0.00 0.00 0.00 35 1022.8
20260508150103 64 315 3.0 6.0 0.00 0.00 0.00 35 1022.8
20260508144621 63 338 3.0 6.0 0.00 0.00 0.00 35 1022.7
20260508143106 62 340 3.0 5.0 0.00 0.00 0.00 35 1022.7
20260508141602 62 332 3.0 6.0 0.00 0.00 0.00 36 1022.6
20260508140054 61 333 3.0 5.0 0.00 0.00 0.00 36 1022.6
20260508134600 60 333 3.0 4.0 0.00 0.00 0.00 36 1022.5
20260508133115 60 333 3.0 5.0 0.00 0.00 0.00 35 1022.3
20260508131551 60 336 2.0 4.0 0.00 0.00 0.00 35 1022.3
20260508130052 60 333 2.0 4.0 0.00 0.00 0.00 36 1022.0
20260508124550 59 326 2.0 4.0 0.00 0.00 0.00 36 1022.0
20260508123100 60 324 2.0 4.0 0.00 0.00 0.00 37 1021.9
20260508121550 60 327 2.0 4.0 0.00 0.00 0.00 37 1021.7
20260508120053 59 327 2.0 4.0 0.00 0.00 0.00 39 1021.7
20260508114557 59 0 0.0 0.0 0.00 0.00 0.00 40 1021.8
20260508113106 59 0 0.0 0.0 0.00 0.00 0.00 44 1021.8
20260508111605 59 0 0.0 0.0 0.00 0.00 0.00 41 1021.7
20260508110055 60 0 0.0 0.0 0.00 0.00 0.00 40 1021.8
20260508104550 59 0 0.0 0.0 0.00 0.00 0.00 40 1021.9
20260508103059 59 0 0.0 0.0 0.00 0.00 0.00 43 1022.0
20260508101600 59 0 0.0 0.0 0.00 0.00 0.00 44 1021.9
20260508100049 60 0 0.0 0.0 0.00 0.00 0.00 44 1022.0
20260508094550 59 0 0.0 0.0 0.00 0.00 0.00 44 1021.9
20260508093052 59 0 0.0 0.0 0.00 0.00 0.00 46 1021.9
20260508091558 59 0 0.0 0.0 0.00 0.00 0.00 46 1021.9
20260508090108 58 0 0.0 0.0 0.00 0.00 0.00 48 1022.0
20260508084549 58 311 1.0 2.0 0.00 0.00 0.00 50 1022.1
20260508083047 58 311 2.0 4.0 0.00 0.00 0.00 54 1022.2
20260508081558 58 311 2.0 4.0 0.00 0.00 0.00 56 1022.4
20260508080048 59 315 3.0 5.0 0.00 0.00 0.00 55 1022.4
20260508074548 59 321 2.0 5.0 0.00 0.00 0.00 52 1022.5
20260508073101 59 317 3.0 6.0 0.00 0.00 0.00 44 1022.5
20260508071555 60 324 3.0 7.0 0.00 0.00 0.00 43 1022.5
20260508070050 60 313 3.0 7.0 0.00 0.00 0.00 40 1022.6
20260508064551 59 317 3.0 7.0 0.00 0.00 0.00 40 1022.7
20260508063049 60 309 3.0 9.0 0.00 0.00 0.00 40 1022.9
20260508061551 60 327 4.0 6.0 0.00 0.00 0.00 40 1022.8
20260508060050 59 308 3.0 5.0 0.00 0.00 0.00 41 1022.8
20260508054548 59 300 3.0 5.0 0.00 0.00 0.00 44 1022.9
20260508053114 59 302 3.0 5.0 0.00 0.00 0.00 48 1022.9
20260508051554 59 310 3.0 5.0 0.00 0.00 0.00 50 1023.1
20260508050049 59 301 3.0 5.0 0.00 0.00 0.00 50 1023.1
20260508044547 59 306 3.0 5.0 0.00 0.00 0.00 52 1023.0
20260508043048 59 300 3.0 5.0 0.00 0.00 0.00 53 1023.1
20260508041611 58 305 3.0 5.0 0.00 0.00 0.00 58 1022.9
20260508040109 58 307 2.0 7.0 0.00 0.00 0.00 67 1022.8
20260508034549 58 311 2.0 4.0 0.00 0.00 0.00 70 1022.7
20260508033047 57 313 2.0 3.0 0.00 0.00 0.00 74 1022.5
20260508031549 58 311 2.0 4.0 0.00 0.00 0.00 74 1022.4
20260508030047 58 313 1.0 3.0 0.00 0.00 0.00 73 1022.5
20260508024603 58 310 2.0 4.0 0.00 0.00 0.00 73 1022.2
20260508023051 59 309 2.0 4.0 0.00 0.00 0.00 72 1022.2
20260508021550 61 308 2.0 5.0 0.00 0.00 0.00 70 1022.0
20260508020053 62 305 2.0 4.0 0.00 0.00 0.00 68 1021.9
20260508014550 62 315 2.0 4.0 0.00 0.00 0.00 65 1022.0
20260508013053 63 335 2.0 5.0 0.00 0.00 0.00 63 1022.0
20260508011556 64 347 3.0 6.0 0.00 0.00 0.00 61 1022.0
20260508010049 65 5 3.0 7.0 0.00 0.00 0.00 58 1022.0
20260508004555 66 338 3.0 9.0 0.00 0.00 0.00 54 1021.8
20260508003103 67 336 3.0 8.0 0.00 0.00 0.00 53 1021.8
20260508001551 68 355 3.0 6.0 0.00 0.00 0.00 49 1021.9
20260508000048 70 301 3.0 6.0 0.00 0.00 0.00 41 1021.8
20260507234550 71 321 3.0 9.0 0.00 0.00 0.00 35 1021.7
20260507233058 71 342 3.0 10.0 0.00 0.00 0.00 30 1021.6
20260507231551 71 297 2.0 9.0 0.00 0.00 0.00 31 1021.6
20260507230050 71 284 3.0 7.0 0.00 0.00 0.00 28 1021.8
20260507224556 72 295 3.0 9.0 0.00 0.00 0.00 31 1021.8
20260507223052 72 350 3.0 8.0 0.00 0.00 0.00 31 1021.8
20260507221552 72 272 5.0 10.0 0.00 0.00 0.00 33 1021.8
20260507220051 72 291 3.0 10.0 0.00 0.00 0.00 31 1022.0
20260507214601 72 308 3.0 9.0 0.00 0.00 0.00 34 1022.4
20260507213102 73 287 3.0 10.0 0.00 0.00 0.00 37 1022.6